TimeEDT,TemperatureF,Dew PointF,Humidity,Sea Level PressureIn,VisibilityMPH,Wind Direction,Wind SpeedMPH,Gust SpeedMPH,PrecipitationIn,Events,Conditions,WindDirDegrees,DateUTC
12:53 AM,53.1,48.9,86,29.91,10.0,North,3.5,-,N/A,,Scattered Clouds,350,2012-10-27 04:53:00
1:53 AM,54.0,50.0,86,29.90,10.0,Calm,Calm,-,N/A,,Scattered Clouds,0,2012-10-27 05:53:00
2:53 AM,54.0,50.0,86,29.88,10.0,Calm,Calm,-,N/A,,Mostly Cloudy,0,2012-10-27 06:53:00
3:53 AM,55.9,51.1,84,29.86,10.0,Calm,Calm,-,N/A,,Mostly Cloudy,0,2012-10-27 07:53:00
4:53 AM,53.1,50.0,89,29.86,9.0,Calm,Calm,-,N/A,,Mostly Cloudy,0,2012-10-27 08:53:00
5:53 AM,52.0,50.0,93,29.86,6.0,Calm,Calm,-,N/A,,Mostly Cloudy,0,2012-10-27 09:53:00
6:53 AM,53.1,51.1,93,29.87,8.0,Calm,Calm,-,N/A,,Mostly Cloudy,0,2012-10-27 10:53:00
7:53 AM,52.0,50.0,93,29.89,10.0,Calm,Calm,-,N/A,,Mostly Cloudy,0,2012-10-27 11:53:00
8:53 AM,55.0,53.1,93,29.91,10.0,Calm,Calm,-,N/A,,Overcast,0,2012-10-27 12:53:00
9:53 AM,57.9,53.1,84,29.91,10.0,Calm,Calm,-,N/A,,Overcast,0,2012-10-27 13:53:00
10:53 AM,61.0,53.1,75,29.90,10.0,Calm,Calm,-,N/A,,Overcast,0,2012-10-27 14:53:00
11:53 AM,64.0,54.0,70,29.88,10.0,West,5.8,-,N/A,,Mostly Cloudy,280,2012-10-27 15:53:00
12:53 PM,64.9,54.0,68,29.87,10.0,NW,8.1,-,N/A,,Overcast,320,2012-10-27 16:53:00
1:53 PM,60.1,51.1,72,29.86,8.0,North,9.2,-,N/A,,Overcast,360,2012-10-27 17:53:00
2:53 PM,59.0,50.0,72,29.86,7.0,North,11.5,-,N/A,,Overcast,10,2012-10-27 18:53:00
3:27 PM,57.2,50.0,77,29.90,7.0,NNE,6.9,-,N/A,,Overcast,30,2012-10-27 19:27:00
3:53 PM,55.9,48.9,77,29.86,7.0,NNE,6.9,-,N/A,,Overcast,20,2012-10-27 19:53:00
4:53 PM,55.0,48.0,77,29.87,10.0,North,4.6,-,N/A,,Overcast,10,2012-10-27 20:53:00
5:53 PM,53.1,46.0,77,29.87,10.0,North,6.9,-,N/A,,Overcast,350,2012-10-27 21:53:00
6:53 PM,53.1,45.0,74,29.88,10.0,North,9.2,16.1,N/A,,Overcast,350,2012-10-27 22:53:00
7:53 PM,52.0,45.0,77,29.89,10.0,Variable,6.9,-,N/A,,Overcast,0,2012-10-27 23:53:00
8:53 PM,51.1,45.0,80,29.90,10.0,NNE,11.5,16.1,N/A,,Overcast,20,2012-10-28 00:53:00
9:53 PM,51.1,44.1,77,29.90,10.0,Variable,4.6,-,N/A,,Overcast,0,2012-10-28 01:53:00
10:53 PM,50.0,43.0,77,29.91,10.0,North,8.1,-,N/A,,Overcast,10,2012-10-28 02:53:00
11:53 PM,48.9,42.1,77,29.90,10.0,NNW,9.2,-,N/A,,Overcast,340,2012-10-28 03:53:00